Regional Weather Roundup
Issued by NWS

Home | Current Version | Previous Version | Graphics & Text | Print | Product List | Glossary On
Versions: 1 2 3 4 5 6 7 8 9 10 11 12 13 14 15 16 17 18 19 20 21 22 23 24 25 26 27 28 29 30 31 32 33 34 35 36 37 38 39 40 41 42 43 44 45 46 47 48 49
000
ASUS43 KDMX 291907
RWRIA

WEATHER ROUNDUP FOR IOWA
NATIONAL WEATHER SERVICE DES MOINES IA
200 PM CDT MON SEP 29 2014

NOTE: "FAIR" INDICATES FEW OR NO CLOUDS BELOW 12,000 FEET WITH NO
SIGNIFICANT WEATHER AND/OR OBSTRUCTIONS TO VISIBILITY.

* - THESE STATIONS ARE NOT NWS STATIONS...THUS NOT UNDER NWS
QUALITY CONTROL.  THEY ALSO DO NOT REPORT WEATHER SUCH
AS PRECIPITATION OR FOG.

IAZ001>003-012>014-020>022-031>034-043>046-292000-
   NORTHWEST IOWA

CITY           SKY/WX    TMP DP  RH WIND       PRES   REMARKS
CARROLL *      CLOUDY    73  63  68 N8        30.03F
CHEROKEE *     MOSUNNY   68  63  83 E7        30.05F
DENISON *      SUNNY     75  66  73 N9        30.01F
LE MARS *      SUNNY     73  63  68 N8        30.05F
ORANGE CITY *  SUNNY     73  61  64 NE5       30.05F
SHELDON *      SUNNY     72  59  64 VRB7G14   30.05F
SIOUX CITY     SUNNY     80  64  58 E7        30.02F HX  82
SPENCER        CLOUDY    64  58  80 NE13      30.08F
STORM LAKE *   SUNNY     68  61  77 NE8       30.07F
$$

IAZ055>058-069>071-079>083-090>094-292000-
   SOUTHWEST IOWA

CITY           SKY/WX    TMP DP  RH WIND       PRES   REMARKS
ATLANTIC *     SUNNY     82  57  42 VRB6      30.02F HX  82
AUDUBON *      MOSUNNY   82  52  34 W5        30.04F HX  81
CLARINDA *     SUNNY     82  57  42 W5        30.04F HX  82
COUNCIL BLFS * SUNNY     81  61  50 S6        30.02F HX  81
CRESTON *      PTSUNNY   79  59  50 W6        30.05F HX  80
HARLAN  *      MOSUNNY   81  59  47 W3        30.06F HX  81
LAMONI         MOSUNNY   80  57  45 W3        30.04F HX  80
RED OAK *      SUNNY     82  59  44 CALM      30.03F HX  82
SHENANDOAH *   SUNNY     82  57  42 VRB7      30.03F HX  82
$$

IAZ047>049-059>061-072>074-084-292000-
   CENTRAL IOWA

CITY           SKY/WX    TMP DP  RH WIND       PRES   REMARKS
AMES           MOSUNNY   79  62  56 N7        30.01F HX  80
ANKENY *       MOSUNNY   81  63  54 SW7       30.01F HX  82
CHARITON *     SUNNY     81  61  50 VRB6G12   30.03F HX  81
DES MOINES     CLOUDY    78  60  53 W8        30.02F
GRINNELL*      SUNNY     81  55  41 SW7       30.01F HX  80
KNOXVILLE *    MOSUNNY   81  57  44 SW9       30.01F HX  81
MARSHALLTOWN   MOSUNNY   79  60  52 W5        30.00F HX  80
PELLA *        SUNNY     82  59  44 W6        30.03F HX  82
PERRY *          N/A     82  59  44 W6        30.02F HX  82
$$

IAZ004>006-015-016-023>025-035-036-292000-
   NORTH CENTRAL IOWA

CITY           SKY/WX    TMP DP  RH WIND       PRES   REMARKS
ALGONA *       CLOUDY    63  61  94 N9        30.08F FOG
CLARION *      SUNNY     72  61  68 N10       30.04F
ESTHERVILLE    CLOUDY    60  57  89 NE13      30.09F
FORT DODGE *   MOSUNNY   73  63  68 N6        30.05F
MASON CITY     CLOUDY    64  60  87 N13       30.07F
FOREST CITY *  CLOUDY    63  63 100 N8        30.06F
IOWA FALLS *     N/A     79  61  53 W7        30.03F HX  80
$$

IAZ007>011-017>019-026>030-037>042-050>054-066-292000-
   NORTHEAST IOWA

CITY           SKY/WX    TMP DP  RH WIND       PRES   REMARKS
CEDAR RAPIDS   SUNNY     81  61  50 VRB6      30.00F HX  81
CHARLES CITY * SUNNY     75  61  60 N10G17    30.03S
CLINTON *      PTSUNNY   82  57  42 SW15      30.01F HX  82
DECORAH *      SUNNY     72  61  68 N13       30.01F
MONTICELLO *   MOSUNNY   82  57  42 SW12      29.99F HX  82
OELWEIN *      PTSUNNY   81  59  47 NW6G16    30.00F HX  81
WATERLOO       SUNNY     82  60  47 W7        29.98F HX  82
$$

IAZ064-065-067-068-078-292000-
   EAST CENTRAL IOWA

CITY           SKY/WX    TMP DP  RH WIND       PRES   REMARKS
IOWA CITY      SUNNY     82  59  45 VRB6      30.01F HX  82
MT. PLEASANT * MOSUNNY   84  52  32 NW6       30.01F HX  82
MUSCATINE *    SUNNY     84  52  32 NW7G14    30.00F HX  82
$$

IAZ062-063-075>077-085>089-095>099-292000-
   SOUTHEAST IOWA

CITY           SKY/WX    TMP DP  RH WIND       PRES   REMARKS
BURLINGTON     MOSUNNY   82  58  43 W7        30.01F HX  82
FAIRFIELD *    MOSUNNY   82  55  39 VRB5G13   30.01F HAZE    HX  82
FORT MADISON * SUNNY     86  54  32 W7        30.02F HX  84
KEOKUK *       MOSUNNY   82  61  47 W7G13     30.01F HX  83
OSKALOOSA *      N/A     82  57  42 W8        30.02F HX  82
CENTERVILLE *  SUNNY     82  57  42 NW5       30.05F HX  82
OTTUMWA        SUNNY     81  59  47 NW6       30.02F HX  81
WASHINGTON *   SUNNY     82  57  42 NW8       30.01F HX  82
$$

ABBREVIATIONS USED IN REMARKS
   TC - TEMPERATURES IN CELSIUS
  WCI - WIND CHILL INDEX
   HX - HEAT INDEX
  VSB - VISIBILITY
$$




USA.gov is the U.S. government's official web portal to all federal, state and local government web resources and services.